Weather History for Mobile Downtown, AL

Change the Weather History Date:

Monday, May 19, 2014

  Actual Average Record
Temperature  
Mean Temperature 70 °F -  
Max Temperature 82 °F 81 °F 93 °F (1998)
Min Temperature 59 °F 63 °F 50 °F (2002)
Cooling Degree Days 6    
Growing Degree Days 20 (Base 50)    
Moisture  
Dew Point 61 °F    
Average Humidity 75    
Maximum Humidity 97    
Minimum Humidity 35    
Precipitation  
Precipitation 0.00 in - - ()
Sea Level Pressure  
Sea Level Pressure 30.18 in    
Wind  
Wind Speed 4 mph (SSW)    
Max Wind Speed 12 mph    
Max Gust Speed -    
Visibility 9 miles    
Events      
Averages and records for this station are not official NWS values.
T = Trace of Precipitation, MM = Missing Value Source: NWS Daily Summary

Daily Weather History Graph

Daily Weather History Graph

Search for Another Location

Airport:

Trip Planner

Search our weather history database for the weather conditions in past years. The results will help you decide how hot, cold, wet, or windy it might be!

Date:

Astronomy

May. 19, 2014 Rise Set
Actual Time 5:55 AM CDT 7:42 PM CDT
Civil Twilight 5:28 AM CDT 8:09 PM CDT
Nautical Twilight 4:56 AM CDT 8:41 PM CDT
Astronomical Twilight 4:22 AM CDT 9:15 PM CDT
Moon No Moon Rise 10:46 AM CDT (5/19)
Length of Visible Light 14h 40m
Length of Day
13h 47m
Waning Gibbous, 71% of the Moon is Illuminated
May 19
Waning Gibbous
May 21
Last Quarter
May 28
New
Jun 5
First Quarter
Jun 12
Full

Hourly Weather History & Observations

Time (CDT) Temp. Heat Index Dew Point Humidity Pressure Visibility Wind Dir Wind Speed Gust Speed Precip Events Conditions
12:53 AM 63.0 °F - 61.0 °F 93% 30.17 in 10.0 mi WNW 3.5 mph - N/A   Clear
1:53 AM 60.1 °F - 59.0 °F 96% 30.15 in 8.0 mi Calm Calm - N/A   Clear
2:53 AM 60.1 °F - 59.0 °F 96% 30.15 in 6.0 mi West 3.5 mph - N/A   Clear
3:53 AM 60.1 °F - 59.0 °F 96% 30.16 in 9.0 mi WNW 3.5 mph - N/A   Clear
4:53 AM 60.1 °F - 59.0 °F 96% 30.17 in 5.0 mi Calm Calm - N/A   Clear
5:53 AM 59.0 °F - 57.9 °F 96% 30.17 in 8.0 mi NW 3.5 mph - N/A   Clear
6:53 AM 63.0 °F - 62.1 °F 97% 30.19 in 10.0 mi NW 3.5 mph - N/A   Partly Cloudy
9:53 AM 75.0 °F - 66.9 °F 76% 30.21 in 10.0 mi NE 8.1 mph - N/A   Partly Cloudy
10:53 AM 78.1 °F - 64.9 °F 64% 30.21 in 10.0 mi NE 8.1 mph - N/A   Clear
11:53 AM 81.0 °F - 51.1 °F 35% 30.21 in 10.0 mi East 4.6 mph - N/A   Partly Cloudy
1:53 PM 82.0 °F 82.7 °F 61.0 °F 49% 30.20 in 10.0 mi SSE 11.5 mph - N/A   Partly Cloudy
2:53 PM 82.0 °F 83.0 °F 62.1 °F 51% 30.18 in 10.0 mi SSE 9.2 mph - N/A   Clear
3:53 PM 81.0 °F 81.6 °F 60.1 °F 49% 30.17 in 10.0 mi South 9.2 mph - N/A   Clear
4:53 PM 80.1 °F 80.4 °F 57.0 °F 45% 30.17 in 10.0 mi South 8.1 mph - N/A   Clear
5:53 PM 79.0 °F - 59.0 °F 50% 30.16 in 10.0 mi South 8.1 mph - N/A   Clear
6:53 PM 75.9 °F - 61.0 °F 60% 30.16 in 10.0 mi South 4.6 mph - N/A   Clear
7:53 PM 73.9 °F - 63.0 °F 68% 30.17 in 10.0 mi South 4.6 mph - N/A   Clear
8:53 PM 71.1 °F - 64.9 °F 81% 30.17 in 10.0 mi SSW 3.5 mph - N/A   Clear
9:53 PM 70.0 °F - 64.9 °F 84% 30.18 in 10.0 mi SSW 4.6 mph - N/A   Clear
10:53 PM 66.0 °F - 64.0 °F 93% 30.19 in 10.0 mi Calm Calm - N/A   Clear
11:53 PM 64.0 °F - 62.1 °F 93% 30.18 in 7.0 mi Calm Calm - N/A   Clear